Hourly Data Report for September 15, 2017

All times are specified in Local Standard Time (LST). Add 1 hour to adjust for Daylight Saving Time where and when it is observed.

EAST POINT (AUT)
PRINCE EDWARD ISLAND

46°27'36.000" N
61°59'18.000" W
7.70 m
8300418
71412
WEP

Download Data

Hourly Data (September 2017)
Hourly Data Report for September 15, 2017
Temp Definition
°C
Dew Point Temp Definition
°C
Rel Hum Definition
%
Wind Dir Definition
10's deg

Wind Spd Definition
km/h
Visibility Definition
km
Stn Press Definition
kPa
Hmdx Definition


Wind Chill Definition


Weather Definition


TIME
00:00 17.5 16.2 92 34 13   101.17     LegendNANA
01:00 16.9 14.2 85 2 33   101.28     LegendNANA
02:00 16.8 12.6 76 3 27   101.33     LegendNANA
03:00 16.5 12.0 75 2 25   101.40     LegendNANA
04:00 16.1 9.7 66 2 25   101.44     LegendNANA
05:00 15.9 9.6 66 1 20   101.54     LegendNANA
06:00 16.0 7.7 58 36 20   101.66     LegendNANA
07:00 16.0 8.9 63 36 18   101.72     LegendNANA
08:00 16.1 9.4 64 35 18   101.83     LegendNANA
09:00 16.6 9.9 65 36 13   101.90     LegendNANA
10:00 17.1 9.9 62 35 11   101.95     LegendNANA
11:00 17.3 10.2 63 35 13   101.99     LegendNANA
12:00 17.5 10.1 62 35 11   102.00     LegendNANA
13:00 17.3 10.0 63 35 11   102.02     LegendNANA
14:00 17.4 10.7 65 1 10   102.00     LegendNANA
15:00 17.2 10.8 66 2 11   102.00     LegendNANA
16:00 16.8 9.7 63 3 9   102.02     LegendNANA
17:00 16.2 8.9 62 7 8   102.07     LegendNANA
18:00 15.4 9.8 69 9 10   102.06     LegendNANA
19:00 15.5 10.7 73 9 13   102.08     LegendNANA
20:00 15.6 10.3 71 10 12   102.09     LegendNANA
21:00 15.6 10.7 73 8 11   102.07     LegendNANA
22:00 14.1 10.2 78 13 8   102.04     LegendNANA
23:00 16.0 11.9 77 14 11   101.99     LegendNANA

Notes on Data Quality.

Legend

  • E = Estimated
  • M = Missing
  • NA = Not Available
  • ‡ = Partner data that is not subject to review by the National Climate Archives
Date modified: